Tracking 17154 objects as of 31-July-2015
HD Live streaming from Space Station

IRIDIUM 54

Track IRIDIUM 54 now!
10-day predictions
IRIDIUM 54 is classified as:


NORAD ID: 25171
Int'l Code: 1998-010C
Perigee: 783.2 km
Apogee: 786.4 km
Inclination: 86.4 °
Period: 100.4 minutes
Semi major axis: 7155 km
RCS: 3.5028 m2 (large)
Launch date: February 18, 1998
Source: United States (US)
Your satellite tracking list
Your tracking list is empty





NASA's NSSDC Master Catalog

Two Line Element Set (TLE):
1 25171U 98010C   15211.44934823  .00000217  00000-0  70497-4 0  9992
2 25171 086.3961 277.8363 0002258 094.6095 265.5358 14.34218968913358

Source of the keplerian elements: AFSPC

N2YO: 278